Back to catalog

BREEZE-M DEB

TANK

AliveHEO
NORAD 39362·DEBRIS·🇷🇺 Russia

Launched Oct 25, 2013 from Baikonur Cosmodrome

Loading…

Next Passes (next 24 hours)

TLE

FreshSource: Space-Track

Epoch: Sep 14, 2026, 05:42 UTC

1 39362U 13058C   26257.23805696  .00002020  00000-0  37241-3 0  9995
2 39362  49.5186 216.6533 5127561 260.1089  40.8481  5.40135945248338

Track BREEZE-M DEB in real time with AllMySat

Download on the App Store